Home > Time Zones > World Clock > Weather > Russia > Perm > Past weeks

Flag for Russia Weather past 2 weeks in Perm, Russia

Now
45 °F

Broken clouds.


Feels Like: 38 °F
Forecast: 31 / 53 °F
Wind: 15 mph from West

Location: Perm'/Bolshoe Savino

Current Time: Apr 27, 2015 at 2:56:08 PM

Latest Report: Apr 27, 2015 at 2:30 PM


Visibility: N/A

Pressure: 29.89 "Hg

Humidity: 39%

Dew point: 21 °F

Location of PermLocation

Historic Weather in Perm — Graph

°F

Perm temperature yesterday

Maximum temperature yesterday: 46 °F (at 3:30 PM)
Minimum temperature yesterday: 27 °F (at 4:30 AM)
Average temperature yesterday: 36 °F

Past Weeks' High & Low Weather Summary

 TemperatureHumidityPressure
High55 °F (Apr 15, 2:30 PM)100% (Apr 15, 12:30 AM)30.09 "Hg (Apr 15, 12:30 AM)
Low25 °F (Apr 15, 6:00 AM)27% (Apr 26, 3:30 PM)29.15 "Hg (Apr 24, 2:30 PM)
Average39 °F75%29.58 "Hg
* Reported Apr 12 2:00 PM — Apr 27 2:00 PM, Perm, Weather by CustomWeather, © 2015

Note: Actual official high and low records may vary slightly from our data, if they occured in-between our weather recording intervals... More about our weather records

Advertising

Perm weather history for previous 24 hours

 ConditionsComfort  
Time TempWeatherWind HumidityBarometerVisibility
2:00 PM
Mon, Apr 27
41 °FSnow flurries. Broken clouds.8 mph49%29.89 "HgN/A
1:30 PM41 °FPartly sunny.10 mph53%29.89 "HgN/A
1:00 PM41 °FPartly sunny.13 mph57%29.89 "HgN/A
12:30 PM41 °FSnow flurries. Partly sunny.15 mph53%29.89 "HgN/A
12:00 PM41 °FPartly sunny.17 mph45%29.86 "HgN/A
11:30 AM39 °FPartly sunny.13 mph52%29.86 "HgN/A
11:00 AM41 °FPartly sunny.17 mph53%29.86 "HgN/A
10:30 AM39 °FPartly sunny.13 mph65%29.86 "HgN/A
10:00 AM37 °FPartly sunny.15 mph65%29.86 "HgN/A
9:30 AM36 °FScattered clouds.13 mph70%29.86 "HgN/A
9:00 AM36 °FSunny.13 mph70%29.86 "Hg10 mi
8:30 AM34 °FSunny.13 mph75%29.83 "Hg10 mi
8:00 AM34 °FSunny.10 mph70%29.83 "Hg10 mi
7:30 AM32 °FClear.8 mph75%29.83 "Hg10 mi
7:00 AM28 °FClear.8 mph86%29.83 "Hg10 mi
6:30 AM27 °FClear.8 mph86%29.80 "Hg10 mi
6:00 AM27 °FClear.10 mph86%29.80 "Hg10 mi
5:30 AM25 °FClear.8 mph86%29.80 "Hg10 mi
5:00 AM27 °FClear.8 mph80%29.80 "Hg10 mi
4:30 AM28 °FClear.6 mph74%29.77 "Hg10 mi
4:00 AM28 °FClear.6 mph80%29.77 "Hg10 mi
3:30 AM30 °FClear.8 mph75%29.77 "Hg10 mi
3:00 AM30 °FClear.8 mph75%29.77 "Hg10 mi
2:30 AM30 °FClear.8 mph80%29.74 "Hg10 mi
2:00 AM32 °FClear.8 mph75%29.74 "Hg10 mi
1:30 AM32 °FClear.8 mph80%29.74 "Hg10 mi
1:00 AM34 °FClear.6 mph81%29.71 "Hg10 mi
12:30 AM36 °FMostly cloudy.10 mph75%29.71 "HgN/A
12:00 AM34 °FMostly cloudy.8 mph87%29.71 "HgN/A
11:30 PM
Sun, Apr 26
34 °FLight snow. Mostly cloudy.8 mph87%29.68 "HgN/A
11:00 PM34 °FMostly cloudy.3 mph93%29.68 "HgN/A
10:30 PM34 °FSprinkles. Partly sunny.3 mph93%29.68 "HgN/A
10:00 PM34 °FSnow flurries. Partly sunny.3 mph93%29.68 "Hg4 mi
9:30 PM34 °FSnow flurries. Partly sunny.3 mph93%29.65 "Hg3 mi
9:00 PM36 °FSnow flurries. Partly sunny.8 mph87%29.65 "HgN/A
8:30 PM37 °FSprinkles. Partly sunny.15 mph75%29.65 "HgN/A
8:00 PM41 °FSunny.6 mph53%29.62 "Hg10 mi
7:30 PM41 °FPassing clouds.6 mph53%29.62 "HgN/A
7:00 PM41 °FSunny.6 mph49%29.62 "Hg10 mi
6:30 PM43 °FSunny.10 mph46%29.59 "Hg10 mi
6:00 PM45 °FSunny.13 mph37%29.59 "Hg10 mi
5:30 PM46 °FSunny.13 mph32%29.59 "Hg10 mi
5:00 PM45 °FSunny.8 mph31%29.59 "Hg10 mi
4:30 PM45 °FSunny.10 mph29%29.59 "Hg10 mi
4:00 PM46 °FPassing clouds.10 mph27%29.59 "HgN/A
3:30 PM46 °FPassing clouds.13 mph27%29.59 "HgN/A
3:00 PM45 °FSunny.13 mph29%29.56 "Hg10 mi
2:30 PM45 °FPassing clouds.15 mph29%29.56 "HgN/A
2:00 PM45 °FSunny.15 mph29%29.56 "Hg10 mi
Weather by CustomWeather, © 2015

See weather overviewHow to use our weather pages